Location: Colebrook
(42.0017°N, 73.0973°W)
Time: 10:06:40
(UTC-04:00)

Amateur Radio Satellites - All Passes

Search period start: 21 September 2014 09:36
Search period end: 22 September 2014 09:36
Location: Colebrook, 42.0017°N, 73.0973°W

Satellite Date Start Highest point End Downlink Frequencies (MHz)
Time Altitude Azimuth
MaSat-1 21 Sep 09:43:06 09:46:42 20° 310° (NW) 09:50:13 437.345 MHz
UKube-1 21 Sep 09:44:44 09:48:20 25° 96° (E) 09:51:55 145.840 MHz, 145.915 MHz
HO-68 21 Sep 10:04:04 10:11:17 78° 105° (ESE) 10:18:28 435.675 MHz FM
UOSAT-12 21 Sep 10:09:56 10:12:50 16° 251° (WSW) 10:15:43 437.025 FM, 437.400 FM
Sapphire 21 Sep 10:41:39 10:44:04 13° 103° (ESE) 10:46:30 437.095 MHz 1200 baud AX-25 AFSK
FUNcube-1 21 Sep 10:56:22 11:00:51 48° 99° (E) 11:05:16 145.950 - 145.970 MHz USB
Oscar 11 21 Sep 11:01:48 11:06:06 61° 286° (WNW) 11:10:21 145.825 FM, Beacon 2401.500 USB
PCSat 21 Sep 11:06:15 11:10:34 25° 108° (ESE) 11:14:54 145.825 MHz
UKube-1 21 Sep 11:20:42 11:24:31 30° 292° (WNW) 11:28:19 145.840 MHz, 145.915 MHz
RS-15 21 Sep 11:37:53 11:48:07 40° 38° (NE) 11:58:38 29.354 - 29.394 USB, Beacon 29.352 USB
HO-68 21 Sep 11:53:00 11:58:14 23° 304° (NW) 12:03:29 435.675 MHz FM
Oscar 19 21 Sep 12:15:16 12:18:32 17° 61° (ENE) 12:21:48 437.125 CW, 437.150 USB
Sapphire 21 Sep 12:21:19 12:26:43 84° 300° (WNW) 12:32:11 437.095 MHz 1200 baud AX-25 AFSK
FUNcube-1 21 Sep 12:33:42 12:36:51 19° 296° (WNW) 12:39:59 145.950 - 145.970 MHz USB
AO-27 21 Sep 12:39:19 12:41:27 13° 58° (ENE) 12:43:35 436.795 MHz FM
PCSat 21 Sep 12:48:27 12:53:40 48° 305° (NW) 12:58:56 145.825 MHz
AO-Echo 21 Sep 12:52:33 12:55:25 16° 62° (ENE) 12:58:16 ?
Oscar 16 21 Sep 12:52:36 12:57:20 37° 68° (ENE) 13:02:06 437.025 USB, Beacon 2401.1428
JAS-1B 21 Sep 12:55:28 13:02:29 32° 65° (ENE) 13:08:33 435.800 - 435.900 CW/SSB
ITAMSAT 1 21 Sep 13:39:52 13:44:42 42° 69° (ENE) 13:49:34 435.822 SSB
Gurwin Techsat 1B 21 Sep 13:40:31 13:44:30 22° 63° (ENE) 13:48:29 435.225 FM
Uribyol 2 21 Sep 13:43:26 13:48:23 49° 70° (ENE) 13:53:22 436.500 FM
RS-15 21 Sep 13:50:18 14:01:20 72° 243° (WSW) 14:12:50 29.354 - 29.394 USB, Beacon 29.352 USB
Oscar 19 21 Sep 13:52:10 13:57:19 66° 258° (WSW) 14:02:31 437.125 CW, 437.150 USB
Sapphire 21 Sep 14:07:40 14:11:00 16° 320° (NW) 14:14:20 437.095 MHz 1200 baud AX-25 AFSK
AO-27 21 Sep 14:15:01 14:20:11 90° 88° (E) 14:25:24 436.795 MHz FM
TMSAT-1 21 Sep 14:15:27 14:20:06 33° 67° (ENE) 14:24:46 436.925 FM
AO-Echo 21 Sep 14:29:05 14:33:44 57° 259° (W) 14:38:23 ?
AO-7 21 Sep 14:31:52 14:38:09 25° 53° (NE) 14:44:25 29.400 - 29.500 MHz
Oscar 16 21 Sep 14:32:20 14:36:44 28° 265° (W) 14:41:10 437.025 USB, Beacon 2401.1428
PCSat 21 Sep 14:37:23 14:38:28 11° 327° (NNW) 14:39:34 145.825 MHz
JAS-1B 21 Sep 14:44:30 14:52:51 55° 259° (W) 14:59:53 435.800 - 435.900 CW/SSB
Gurwin Techsat 1B 21 Sep 15:18:57 15:24:06 51° 260° (W) 15:29:17 435.225 FM
ITAMSAT 1 21 Sep 15:20:14 15:24:21 24° 266° (W) 15:28:30 435.822 SSB
Uribyol 2 21 Sep 15:24:16 15:28:06 21° 267° (W) 15:31:58 436.500 FM
Uosat F 21 Sep 15:40:57 15:45:27 35° 68° (ENE) 15:49:59 435.120 FM
TMSAT-1 21 Sep 15:55:15 15:59:58 33° 264° (W) 16:04:42 436.925 FM
AO-27 21 Sep 15:59:31 16:00:24 10° 272° (W) 16:01:17 436.795 MHz FM
RS-15 21 Sep 16:05:58 16:11:39 16° 263° (W) 16:17:28 29.354 - 29.394 USB, Beacon 29.352 USB
AO-7 21 Sep 16:21:43 16:30:02 82° 253° (WSW) 16:38:23 29.400 - 29.500 MHz
MaSat-1 21 Sep 16:22:21 16:24:12 13° 45° (NE) 16:25:57 437.345 MHz
JAS-2 21 Sep 16:47:49 16:51:50 23° 64° (ENE) 16:55:51 435.800 - 435.900 CW/SSB, 435.910 FM
OPAL 21 Sep 16:49:37 16:53:30 21° 95° (E) 16:57:19 ?
Saudisat 1A 21 Sep 16:53:54 16:58:16 71° 121° (ESE) 17:02:40 436.775 MHz
Hamsat 21 Sep 17:05:18 17:08:49 24° 68° (ENE) 17:12:20 145.90 MHz
Uosat F 21 Sep 17:20:04 17:24:17 27° 265° (W) 17:28:31 435.120 FM
KITSAT 1 21 Sep 17:23:12 17:26:25 13° 98° (E) 17:29:38 435.175 FM
MaSat-1 21 Sep 17:57:45 18:01:24 51° 249° (WSW) 18:04:30 437.345 MHz
AO-7 21 Sep 18:19:19 18:23:59 16° 271° (W) 18:28:40 29.400 - 29.500 MHz
OPAL 21 Sep 18:27:39 18:32:37 48° 292° (WNW) 18:37:29 ?
JAS-2 21 Sep 18:31:46 18:36:43 42° 262° (W) 18:41:39 435.800 - 435.900 CW/SSB, 435.910 FM
Saudisat 1A 21 Sep 18:35:24 18:38:19 17° 320° (NW) 18:41:16 436.775 MHz
Hamsat 21 Sep 18:40:45 18:44:38 31° 264° (W) 18:48:31 145.90 MHz
SO-67 21 Sep 18:42:30 18:45:37 33° 72° (ENE) 18:48:46 435.3500 MHz FM
HO-68 21 Sep 18:50:41 18:53:21 12° 48° (NE) 18:56:00 435.675 MHz FM
STRAND 1 21 Sep 19:11:58 19:16:43 37° 98° (E) 19:21:26 ?
KITSAT 1 21 Sep 19:12:20 19:20:21 71° 117° (ESE) 19:28:24 435.175 FM
Sapphire 21 Sep 19:26:48 19:30:10 16° 40° (NE) 19:33:30 437.095 MHz 1200 baud AX-25 AFSK
PCSat 21 Sep 19:52:59 19:57:27 25° 47° (NE) 20:01:53 145.825 MHz
SO-67 21 Sep 20:16:59 20:18:46 14° 268° (W) 20:20:34 435.3500 MHz FM
Oscar 11 21 Sep 20:24:12 20:25:37 11° 61° (ENE) 20:27:02 145.825 FM, Beacon 2401.500 USB
HO-68 21 Sep 20:32:38 20:39:37 61° 68° (ENE) 20:46:38 435.675 MHz FM
UKube-1 21 Sep 20:40:53 20:44:20 24° 66° (ENE) 20:47:48 145.840 MHz, 145.915 MHz
STRAND 1 21 Sep 20:51:25 20:55:45 28° 294° (WNW) 21:00:04 ?
Sapphire 21 Sep 21:08:58 21:14:26 84° 60° (ENE) 21:19:52 437.095 MHz 1200 baud AX-25 AFSK
KITSAT 1 21 Sep 21:09:22 21:16:25 32° 318° (NW) 21:23:31 435.175 FM
AO-40 21 Sep 21:09:25 02:48:39 40° 159° (SSE) 04:29:42 Beacon 2401.320
SO-50 21 Sep 21:15:45 21:19:24 25° 113° (ESE) 21:23:07 436.795 FM
PCSat 21 Sep 21:35:53 21:41:11 55° 246° (WSW) 21:46:27 145.825 MHz
FUNcube-1 21 Sep 21:53:03 21:57:11 40° 71° (ENE) 22:01:26 145.950 - 145.970 MHz USB
Oscar 11 21 Sep 21:56:49 22:01:10 75° 258° (WSW) 22:05:34 145.825 FM, Beacon 2401.500 USB
UKube-1 21 Sep 22:16:31 22:20:23 32° 263° (W) 22:24:17 145.840 MHz, 145.915 MHz
HO-68 21 Sep 22:21:58 22:27:44 26° 266° (W) 22:33:32 435.675 MHz FM
UOSAT-12 21 Sep 22:41:46 22:44:38 16° 109° (ESE) 22:47:31 437.025 FM, 437.400 FM
Sapphire 21 Sep 22:54:38 22:57:05 13° 257° (WSW) 22:59:32 437.095 MHz 1200 baud AX-25 AFSK
SO-50 21 Sep 22:55:33 22:59:45 38° 311° (NW) 23:04:05 436.795 FM
KITSAT 1 21 Sep 23:11:25 23:14:56 13° 347° (NNW) 23:18:27 435.175 FM
FUNcube-1 21 Sep 23:30:31 23:33:45 20° 268° (W) 23:37:02 145.950 - 145.970 MHz USB
Saudisat 1A 21 Sep 23:42:48 23:44:11 11° 34° (NE) 23:45:34 436.775 MHz
UOSAT-12 22 Sep 00:19:42 00:24:16 60° 306° (NW) 00:28:57 437.025 FM, 437.400 FM
Oscar 16 22 Sep 01:05:57 01:07:54 12° 89° (E) 01:09:50 437.025 USB, Beacon 2401.1428
KITSAT 1 22 Sep 01:10:30 01:14:38 14° 18° (NNE) 01:18:46 435.175 FM
Oscar 10/S400 22 Sep 01:14:33 02:19:19 40° 224° (SW) 07:31:21 145.825 - 145.975 CW/USB, Beacon 145.810 USB
Saudisat 1A 22 Sep 01:20:16 01:24:40 63° 54° (NE) 01:29:02 436.775 MHz
ISS 22 Sep 01:37:50 01:40:54 35° 138° (SE) 01:43:59 145.800 FM
ITAMSAT 1 22 Sep 01:53:45 01:56:33 14° 90° (E) 01:59:21 435.822 SSB
Uribyol 2 22 Sep 01:56:54 02:00:13 17° 91° (E) 02:03:31 436.500 FM
Oscar 19 22 Sep 02:03:33 02:08:28 43° 98° (E) 02:13:19 437.125 CW, 437.150 USB
UOSAT-12 22 Sep 02:03:35 02:05:25 12° 327° (NNW) 02:07:15 437.025 FM, 437.400 FM
RS-15 22 Sep 02:08:03 02:14:00 16° 98° (E) 02:19:53 29.354 - 29.394 USB, Beacon 29.352 USB
AO-27 22 Sep 02:28:01 02:32:39 31° 96° (E) 02:37:16 436.795 MHz FM
JAS-1B 22 Sep 02:29:39 02:34:56 37° 98° (E) 02:40:15 435.800 - 435.900 CW/SSB
TMSAT-1 22 Sep 02:32:48 02:34:40 12° 88° (E) 02:36:33 436.925 FM
AO-Echo 22 Sep 02:35:26 02:40:05 43° 99° (E) 02:44:50 ?
Oscar 16 22 Sep 02:42:40 02:47:52 81° 285° (WNW) 02:53:00 437.025 USB, Beacon 2401.1428
Saudisat 1A 22 Sep 03:01:23 03:03:43 14° 251° (WSW) 03:06:03 436.775 MHz
KITSAT 1 22 Sep 03:05:18 03:12:46 39° 46° (NE) 03:20:10 435.175 FM
ISS 22 Sep 03:14:33 03:17:37 33° 335° (NNW) 03:20:42 145.800 FM
ITAMSAT 1 22 Sep 03:31:21 03:36:33 70° 287° (WNW) 03:41:44 435.822 SSB
Gurwin Techsat 1B 22 Sep 03:34:34 03:39:51 63° 101° (ESE) 03:45:06 435.225 FM
Uribyol 2 22 Sep 03:34:56 03:40:05 61° 288° (WNW) 03:45:14 436.500 FM
Oscar 19 22 Sep 03:43:26 03:47:33 25° 295° (WNW) 03:51:38 437.125 CW, 437.150 USB
OPAL 22 Sep 04:04:21 04:09:11 41° 67° (ENE) 04:14:04 ?
AO-27 22 Sep 04:07:30 04:12:08 33° 293° (WNW) 04:16:45 436.795 MHz FM
TMSAT-1 22 Sep 04:09:54 04:15:15 85° 285° (WNW) 04:20:33 436.925 FM
RS-15 22 Sep 04:13:21 04:24:20 76° 118° (ESE) 04:35:13 29.354 - 29.394 USB, Beacon 29.352 USB
AO-Echo 22 Sep 04:14:51 04:18:36 23° 295° (WNW) 04:22:26 ?
JAS-1B 22 Sep 04:20:43 04:25:32 29° 296° (WNW) 04:30:19 435.800 - 435.900 CW/SSB
AO-7 22 Sep 04:23:21 04:30:38 33° 97° (E) 04:37:53 29.400 - 29.500 MHz
Oscar 16 22 Sep 04:24:54 04:26:21 11° 303° (WNW) 04:27:47 437.025 USB, Beacon 2401.1428
ISS 22 Sep 04:52:54 04:55:04 16° 355° (N) 04:57:13 145.800 FM
KITSAT 1 22 Sep 05:00:38 05:08:27 56° 247° (WSW) 05:16:14 435.175 FM
Gurwin Techsat 1B 22 Sep 05:15:46 05:19:18 18° 299° (WNW) 05:22:50 435.225 FM
Uosat F 22 Sep 05:26:17 05:31:21 88° 104° (ESE) 05:36:23 435.120 FM
JAS-2 22 Sep 05:38:39 05:43:38 24° 94° (E) 05:49:01 435.800 - 435.900 CW/SSB, 435.910 FM
OPAL 22 Sep 05:43:53 05:48:10 26° 263° (W) 05:52:30 ?
SO-50 22 Sep 05:46:09 05:50:24 30° 47° (NE) 05:54:41 436.795 FM
TMSAT-1 22 Sep 05:52:20 05:54:20 12° 302° (WNW) 05:56:19 436.925 FM
AO-7 22 Sep 06:15:42 06:23:44 57° 295° (WNW) 06:31:45 29.400 - 29.500 MHz
Hamsat 22 Sep 06:25:42 06:29:46 43° 98° (E) 06:33:46 145.90 MHz
RS-15 22 Sep 06:27:45 06:37:42 38° 324° (NW) 06:47:41 29.354 - 29.394 USB, Beacon 29.352 USB
STRAND 1 22 Sep 06:28:15 06:33:11 55° 72° (ENE) 06:38:10 ?
ISS 22 Sep 06:30:06 06:32:41 20° 15° (NNE) 06:35:16 145.800 FM
Uosat F 22 Sep 07:07:24 07:09:23 12° 302° (WNW) 07:11:23 435.120 FM
UOSAT-12 22 Sep 07:09:36 07:13:08 20° 41° (NE) 07:16:39 437.025 FM, 437.400 FM
JAS-2 22 Sep 07:22:55 07:28:54 59° 288° (WNW) 07:35:40 435.800 - 435.900 CW/SSB, 435.910 FM
SO-50 22 Sep 07:26:35 07:31:03 38° 244° (WSW) 07:35:32 436.795 FM
SO-67 22 Sep 07:38:22 07:41:36 37° 98° (E) 07:44:50 435.3500 MHz FM
MaSat-1 22 Sep 07:42:03 07:46:54 53° 111° (ESE) 07:51:41 437.345 MHz
Hamsat 22 Sep 08:02:38 08:05:22 17° 295° (WNW) 08:08:05 145.90 MHz
ISS 22 Sep 08:06:28 08:09:48 80° 34° (NE) 08:13:07 145.800 FM
STRAND 1 22 Sep 08:09:21 08:12:43 18° 268° (W) 08:16:08 ?
AO-7 22 Sep 08:11:09 08:14:45 14° 316° (NW) 08:18:21 29.400 - 29.500 MHz
RS-15 22 Sep 08:46:34 08:54:26 21° 358° (N) 09:02:23 29.354 - 29.394 USB, Beacon 29.352 USB
UOSAT-12 22 Sep 08:49:02 08:53:43 63° 240° (WSW) 08:58:18 437.025 FM, 437.400 FM
SO-67 22 Sep 09:12:41 09:14:17 13° 294° (WNW) 09:15:54 435.3500 MHz FM
MaSat-1 22 Sep 09:20:00 09:23:54 22° 308° (NW) 09:27:41 437.345 MHz
